Weather History for Ruidoso, NM

Change the Weather History Date:

Wednesday, June 4, 2014

  Actual Average Record
Temperature  
Mean Temperature 78 °F -  
Max Temperature 91 °F 78 °F 91 °F (2014)
Min Temperature 66 °F 53 °F 51 °F (2005)
Cooling Degree Days 14    
Growing Degree Days 28 (Base 50)    
Moisture  
Dew Point 26 °F    
Average Humidity 15    
Maximum Humidity 23    
Minimum Humidity 9    
Precipitation  
Precipitation 0.00 in - - ()
Sea Level Pressure  
Sea Level Pressure 30.13 in    
Wind  
Wind Speed 10 mph (SW)    
Max Wind Speed 23 mph    
Max Gust Speed 37 mph    
Visibility 10 miles    
Events Rain    
Averages and records for this station are not official NWS values.
T = Trace of Precipitation, MM = Missing Value Source: NWS Daily Summary

Daily Weather History Graph

Daily Weather History Graph

Search for Another Location

Airport:

Trip Planner

Search our weather history database for the weather conditions in past years. The results will help you decide how hot, cold, wet, or windy it might be!

Date:

Astronomy

Jun. 04, 2014 Rise Set
Actual Time 5:52 AM MDT 8:08 PM MDT
Civil Twilight 5:23 AM MDT 8:37 PM MDT
Nautical Twilight 4:48 AM MDT 9:12 PM MDT
Astronomical Twilight 4:11 AM MDT 9:50 PM MDT
Moon 12:01 PM MDT (6/4) 12:21 AM MDT (6/4)
Length of Visible Light 15h 13m
Length of Day
14h 16m
Waxing Crescent, 39% of the Moon is Illuminated
Jun 4
Waxing Crescent
Jun 5
First Quarter
Jun 12
Full
Jun 19
Last Quarter
Jun 27
New

Hourly Weather History & Observations

Time (MDT) Temp. Dew Point Humidity Pressure Visibility Wind Dir Wind Speed Gust Speed Precip Events Conditions
12:15 AM 71.6 °F 28.4 °F 20% 30.16 in 10.0 mi SSE 5.8 mph - N/A   Clear
12:35 AM 68.0 °F 26.6 °F 21% 30.16 in 10.0 mi SW 3.5 mph - N/A   Clear
12:55 AM 68.0 °F 24.8 °F 20% 30.16 in 10.0 mi South 6.9 mph - N/A   Clear
1:15 AM 66.2 °F 24.8 °F 21% 30.16 in 10.0 mi SSW 6.9 mph - N/A   Clear
1:35 AM 66.2 °F 24.8 °F 21% 30.16 in 10.0 mi WSW 9.2 mph - N/A   Clear
1:55 AM 66.2 °F 24.8 °F 21% 30.16 in 10.0 mi SW 10.4 mph - N/A   Clear
2:15 AM 68.0 °F 24.8 °F 20% 30.15 in 10.0 mi SW 10.4 mph - N/A   Clear
2:35 AM 66.2 °F 24.8 °F 21% 30.15 in 10.0 mi WSW 10.4 mph - N/A   Clear
2:55 AM 66.2 °F 24.8 °F 21% 30.15 in 10.0 mi WSW 9.2 mph - N/A   Clear
3:15 AM 68.0 °F 24.8 °F 20% 30.15 in 10.0 mi West 10.4 mph - N/A   Clear
3:35 AM 68.0 °F 24.8 °F 20% 30.14 in 10.0 mi West 11.5 mph - N/A   Clear
3:55 AM 68.0 °F 24.8 °F 20% 30.14 in 10.0 mi West 10.4 mph - N/A   Clear
4:15 AM 66.2 °F 24.8 °F 21% 30.15 in 10.0 mi West 9.2 mph - N/A   Clear
4:35 AM 68.0 °F 24.8 °F 20% 30.14 in 10.0 mi WNW 10.4 mph - N/A   Clear
4:55 AM 68.0 °F 26.6 °F 21% 30.14 in 10.0 mi West 9.2 mph - N/A   Clear
5:15 AM 66.2 °F 26.6 °F 23% 30.14 in 10.0 mi West 10.4 mph - N/A   Clear
5:55 AM 68.0 °F 28.4 °F 23% 30.15 in 10.0 mi West 8.1 mph - N/A   Clear
6:15 AM 68.0 °F 28.4 °F 23% 30.15 in 10.0 mi WNW 8.1 mph - N/A   Clear
6:35 AM 69.8 °F 28.4 °F 21% 30.16 in 10.0 mi WNW 6.9 mph - N/A   Clear
6:55 AM 71.6 °F 28.4 °F 20% 30.16 in 10.0 mi West 8.1 mph - N/A   Clear
7:15 AM 71.6 °F 26.6 °F 19% 30.17 in 10.0 mi West 5.8 mph - N/A   Clear
7:35 AM 73.4 °F 26.6 °F 18% 30.17 in 10.0 mi NW 6.9 mph - N/A   Clear
7:55 AM 75.2 °F 26.6 °F 17% 30.18 in 10.0 mi WNW 4.6 mph - N/A   Clear
8:15 AM 75.2 °F 28.4 °F 18% 30.18 in 10.0 mi NW 6.9 mph - N/A   Clear
8:35 AM 77.0 °F 30.2 °F 18% 30.19 in 10.0 mi North 5.8 mph - N/A   Clear
8:55 AM 80.6 °F 32.0 °F 17% 30.19 in 10.0 mi WNW 5.8 mph - N/A Rain Light Rain
9:15 AM 80.6 °F 32.0 °F 17% 30.18 in 10.0 mi WSW 3.5 mph - N/A   Clear
9:35 AM 80.6 °F 32.0 °F 17% 30.18 in 10.0 mi NNE 5.8 mph - N/A   Clear
9:55 AM 82.4 °F 32.0 °F 16% 30.17 in 10.0 mi WSW 4.6 mph - N/A   Clear
10:15 AM 84.2 °F 32.0 °F 15% 30.17 in 10.0 mi South 10.4 mph - N/A   Clear
10:35 AM 84.2 °F 32.0 °F 15% 30.17 in 10.0 mi SSW 9.2 mph 21.9 mph N/A   Clear
10:55 AM 86.0 °F 30.2 °F 13% 30.17 in 10.0 mi South 12.7 mph 18.4 mph N/A   Clear
11:15 AM 87.8 °F 28.4 °F 12% 30.16 in 10.0 mi SW 15.0 mph 24.2 mph N/A   Clear
11:35 AM 89.6 °F 28.4 °F 11% 30.16 in 10.0 mi WSW 13.8 mph 25.3 mph N/A   Clear
11:55 AM 89.6 °F 26.6 °F 10% 30.16 in 10.0 mi WSW 13.8 mph 24.2 mph N/A   Clear
12:15 PM 89.6 °F 28.4 °F 11% 30.15 in 10.0 mi SW 19.6 mph 28.8 mph N/A   Clear
12:35 PM 89.6 °F 26.6 °F 10% 30.15 in 10.0 mi SW 23.0 mph 36.8 mph N/A   Clear
12:55 PM 89.6 °F 26.6 °F 10% 30.15 in 10.0 mi SSW 18.4 mph 28.8 mph N/A   Clear
1:15 PM 89.6 °F 26.6 °F 10% 30.14 in 10.0 mi SW 19.6 mph 27.6 mph N/A   Clear
1:35 PM 89.6 °F 28.4 °F 11% 30.13 in 10.0 mi SW 21.9 mph 28.8 mph N/A   Clear
1:55 PM 91.4 °F 28.4 °F 10% 30.13 in 10.0 mi SW 23.0 mph 32.2 mph N/A   Clear
2:15 PM 91.4 °F 26.6 °F 10% 30.13 in 10.0 mi SW 18.4 mph 31.1 mph N/A   Clear
2:35 PM 91.4 °F 26.6 °F 10% 30.13 in 10.0 mi SW 18.4 mph 28.8 mph N/A   Clear
2:55 PM 91.4 °F 28.4 °F 10% 30.12 in 10.0 mi SW 20.7 mph 33.4 mph N/A   Clear
3:15 PM 91.4 °F 26.6 °F 10% 30.12 in 10.0 mi SSW 13.8 mph 27.6 mph N/A   Clear
3:35 PM 91.4 °F 26.6 °F 10% 30.11 in 10.0 mi SW 18.4 mph 24.2 mph N/A   Clear
3:55 PM 91.4 °F 24.8 °F 9% 30.10 in 10.0 mi WSW 13.8 mph 27.6 mph N/A   Clear
4:15 PM 91.4 °F 26.6 °F 10% 30.10 in 10.0 mi SW 17.3 mph 25.3 mph N/A   Clear
4:35 PM 91.4 °F 26.6 °F 10% 30.09 in 10.0 mi SSW 16.1 mph 25.3 mph N/A   Clear
4:55 PM 91.4 °F 24.8 °F 9% 30.09 in 10.0 mi SW 16.1 mph 24.2 mph N/A   Clear
5:15 PM 89.6 °F 24.8 °F 10% 30.08 in 10.0 mi SW 19.6 mph 27.6 mph N/A   Clear
5:35 PM 89.6 °F 24.8 °F 10% 30.08 in 10.0 mi SW 19.6 mph 26.5 mph N/A   Clear
5:55 PM 89.6 °F 23.0 °F 9% 30.08 in 10.0 mi WSW 19.6 mph 26.5 mph N/A   Clear
6:15 PM 89.6 °F 24.8 °F 10% 30.08 in 10.0 mi WSW 12.7 mph 23.0 mph N/A   Clear
6:35 PM 87.8 °F 23.0 °F 9% 30.07 in 10.0 mi SW 19.6 mph 27.6 mph N/A   Clear
6:55 PM 86.0 °F 23.0 °F 10% 30.07 in 10.0 mi WSW 18.4 mph 26.5 mph N/A   Clear
7:15 PM 86.0 °F 21.2 °F 9% 30.08 in 10.0 mi SW 16.1 mph 21.9 mph N/A   Clear
7:35 PM 84.2 °F 21.2 °F 10% 30.08 in 10.0 mi SW 13.8 mph - N/A   Clear
7:55 PM 84.2 °F 21.2 °F 10% 30.08 in 10.0 mi SW 10.4 mph 19.6 mph N/A   Clear
8:15 PM 80.6 °F 23.0 °F 12% 30.08 in 10.0 mi SW 8.1 mph - N/A   Clear
8:55 PM 77.0 °F 23.0 °F 13% 30.09 in 10.0 mi South 5.8 mph - N/A   Clear
9:15 PM 77.0 °F 23.0 °F 13% 30.09 in 10.0 mi South 6.9 mph - N/A   Clear
9:35 PM 75.2 °F 23.0 °F 14% 30.10 in 10.0 mi South 9.2 mph - N/A   Clear
9:55 PM 73.4 °F 23.0 °F 15% 30.11 in 10.0 mi South 10.4 mph - N/A   Clear
10:15 PM 73.4 °F 19.4 °F 13% 30.11 in 10.0 mi SSW 10.4 mph - N/A   Clear
10:35 PM 75.2 °F 19.4 °F 12% 30.12 in 10.0 mi SSW 9.2 mph - N/A   Clear
10:55 PM 71.6 °F 17.6 °F 13% 30.12 in 10.0 mi South 9.2 mph - N/A   Clear
11:15 PM 69.8 °F 17.6 °F 14% 30.12 in 10.0 mi South 10.4 mph - N/A   Clear
11:55 PM 69.8 °F 15.8 °F 13% 30.13 in 10.0 mi SSW 10.4 mph - N/A   Clear